[[{"header":{"parameterUnit":"m.s-1","parameterCategory":1,"la1":30.2991,"la2":30.254,"lo1":-89.0895,"lo2":-89.0444,"dy":0.0017,"dx":0.0017,"nx":28,"ny":28,"refTime":"2023-10-16T21:00:00:Z","depth":0,"parameterNumber":2,"parameterNumberName":"U-component_of_WINDS"},"data":[0,0,0,0,0,0,0,0,0,0,0,0,0,0,0,0,0,0,0,0,0,0,0,0,0,0,0,0,0,0,0,0,0,0,0,0,0,0,0,0,0,0,0,0,0,0,0,0,0,0,0,0,0,0,0,0,0,0,1.688,1.688,0,1.688,1.688,1.688,1.686,1.686,1.6859,1.6859,1.6857,1.6858,1.6858,0,0,0,0,0,0,0,0,0,0,0,0,0,1.6865,1.6865,1.688,1.688,1.688,1.688,1.688,1.688,1.686,1.686,1.6859,1.6858,1.6857,1.6858,1.6858,0,0,0,0,0,0,0,0,0,0,0,0,0,1.6869,1.6865,1.688,1.6871,1.687,1.688,1.688,1.688,1.686,1.686,1.6859,1.6858,1.6857,1.6857,1.6858,1.6877,0,0,1.686,1.686,0,0,0,0,0,0,0,0,1.6868,1.6869,1.6872,1.6871,1.687,1.6869,1.6874,1.6879,1.6861,1.6864,1.6859,1.6858,1.6862,1.6862,1.6863,1.6877,1.6877,1.686,1.6861,1.6861,1.6861,0,0,0,0,0,0,0,1.6868,1.6869,1.688,1.6872,1.6871,1.6866,1.6866,1.6875,1.6867,1.6863,1.6862,1.6862,1.6861,1.6863,1.6863,1.6877,1.686,1.6861,1.6861,1.6861,1.6908,1.6909,0,0,0,0,0,0,1.6869,1.6869,1.688,1.688,1.6867,1.6867,1.6867,1.687,1.6867,1.6866,1.6863,1.6861,1.6862,1.6863,1.6863,1.6886,1.6861,1.6861,1.6862,1.6907,1.6908,1.6909,0,0,0,0,0,0,1.6869,1.687,1.688,1.6874,1.6875,1.6868,1.6872,1.6871,1.6872,1.6867,1.6865,1.6866,1.6862,1.6862,1.6874,1.6886,1.6862,1.6862,1.6906,1.6907,1.6909,1.6931,0,0,0,0,0,0,1.6869,1.687,1.6877,1.6875,1.6875,1.6891,1.6873,1.6871,1.6874,1.6872,1.6869,1.6868,1.6861,1.6873,1.6875,1.6886,1.6863,1.6905,1.6907,1.6908,1.6929,1.6933,1.6936,0,0,0,0,0,1.6868,1.6883,1.6878,1.6879,1.6884,1.6892,1.6892,1.6884,1.6875,1.6882,1.6878,1.6868,1.6884,1.6875,1.6876,1.6888,1.6904,1.6906,1.6908,1.6928,1.6932,1.6936,0,0,0,0,0,0,1.6887,1.6883,1.6877,1.6891,1.6892,1.6889,1.6897,1.6889,1.6893,1.689,1.688,1.688,1.6894,1.6892,1.6881,1.6907,1.6893,1.6895,1.6907,1.6911,1.6915,1.6914,1.6863,0,0,0,0,0,1.6893,1.69,1.6896,1.6909,1.691,1.6904,1.6907,1.6901,1.6901,1.6901,1.6898,1.6899,1.6904,1.6908,1.6912,1.693,1.6929,1.6938,1.6942,1.6945,1.6946,1.6956,1.696,1.6915,1.6915,1.6915,0,0,1.6905,1.6904,1.6909,1.6913,1.6913,1.692,1.6904,1.6912,1.6918,1.6902,1.6914,1.6912,1.6912,1.6927,1.6933,1.6926,1.6959,1.6947,1.6949,1.695,1.6958,1.6963,1.6966,1.6917,1.6916,1.6916,0,0,1.6931,1.6931,1.6943,1.6943,1.6944,1.694,1.6943,1.6941,1.6939,1.695,1.6939,1.6946,1.6955,1.6956,1.6957,1.6986,1.6976,1.6988,1.7005,1.7014,1.7018,1.7021,1.7031,1.7035,1.699,1.699,1.699,0,1.6946,1.6957,1.6949,1.6959,1.6961,1.6949,1.6961,1.6962,1.6963,1.6965,1.6958,1.697,1.6969,1.6984,1.6991,1.6993,1.6996,1.6987,1.7018,1.7021,1.7024,1.7033,1.7037,1.6991,1.6991,1.6991,1.6991,0,1.6975,1.6983,1.6993,1.6995,1.6999,1.701,1.7004,1.7009,1.7003,1.7,1.7012,1.7011,1.7015,1.7019,1.7013,1.7034,1.7029,1.702,1.7005,1.703,1.7038,1.7042,1.6993,1.6992,1.6992,1.6992,0,0,1.7011,1.7012,1.7015,1.7017,1.7017,1.7023,1.7033,1.7038,1.7043,1.7045,1.7053,1.7063,1.7055,1.7056,1.7051,1.7059,1.7082,1.7049,1.7049,1.7055,1.7105,1.7111,1.7116,1.7077,1.7077,1.7078,1.7105,0,1.7036,1.7054,1.7049,1.7066,1.7074,1.7063,1.7072,1.7074,1.7072,1.7078,1.7076,1.7082,1.7071,1.7072,1.708,1.7078,1.7092,1.7076,1.7084,1.7085,1.7084,1.712,1.7127,1.7152,1.7108,1.7109,1.7109,0,1.7067,1.7072,1.7091,1.7091,1.7094,1.7102,1.7107,1.7113,1.7115,1.7113,1.7116,1.7109,1.712,1.7106,1.7121,1.711,1.7113,1.7113,1.7114,1.7113,1.7098,1.7121,1.716,1.7164,1.7115,1.7114,1.7114,0,1.7092,1.7102,1.7115,1.7117,1.7118,1.7124,1.7125,1.7126,1.713,1.7134,1.7136,1.7142,1.7145,1.7149,1.7144,1.7135,1.7159,1.7145,1.7158,1.7158,1.7162,1.7162,1.7203,1.7166,1.7166,1.7166,1.7166,0,1.7119,1.7131,1.7126,1.7134,1.7147,1.7141,1.7155,1.7154,1.7156,1.7163,1.7155,1.7162,1.7155,1.7162,1.7158,1.7171,1.7173,1.7171,1.717,1.7172,1.7172,1.7173,1.7171,1.7167,1.7167,1.7166,1.7166,0,1.7148,1.7145,1.7158,1.7159,1.7159,1.7169,1.7169,1.7177,1.7175,1.7185,1.7187,1.7184,1.7192,1.7187,1.7195,1.7193,1.7209,1.7206,1.7209,1.7208,1.722,1.7219,1.7262,1.7268,1.7228,1.7229,1.7229,0,1.7165,1.7174,1.7176,1.7181,1.7183,1.719,1.7195,1.719,1.7194,1.7198,1.7205,1.7213,1.7218,1.7231,1.723,1.7236,1.7232,1.7247,1.7233,1.7235,1.7232,1.7231,1.7232,1.725,1.725,1.725,1.7251,0,1.7197,1.7195,1.7202,1.7208,1.7214,1.7218,1.7222,1.7227,1.7222,1.7228,1.7236,1.7241,1.725,1.7257,1.7263,1.7263,1.7256,1.7256,1.7259,1.726,1.7261,1.726,1.7216,1.7254,1.7254,1.7254,1.7253,1.7253,1.722,1.7228,1.7231,1.7239,1.7241,1.7246,1.7253,1.7253,1.726,1.7267,1.7264,1.7273,1.7276,1.7283,1.7285,1.7293,1.7287,1.7292,1.7293,1.7294,1.7295,1.7261,1.7294,1.7294,1.7294,1.7294,1.7294,0,1.725,1.7252,1.726,1.7266,1.7273,1.7267,1.7271,1.7277,1.7286,1.7289,1.7295,1.7305,1.7313,1.7313,1.732,1.7326,1.7323,1.7328,1.7327,1.7327,1.73,1.7297,1.733,1.733,1.733,1.733,1.733,1.733,1.7267,1.728,1.728,1.7294,1.7296,1.7306,1.7309,1.7313,1.7316,1.7328,1.7334,1.7335,1.7337,1.7344,1.7351,1.7351,1.7354,1.736,1.7358,1.7333,1.7329,1.7326,1.7322,1.7361,1.7361,1.7385,1.7385,1.7385]},{"header":{"parameterUnit":"m.s-1","parameterCategory":1,"la1":30.2991,"la2":30.254,"lo1":-89.0895,"lo2":-89.0444,"dy":0.0017,"dx":0.0017,"nx":28,"ny":28,"refTime":"2023-10-16T21:00:00:Z","depth":0,"parameterNumber":3,"parameterNumberName":"V-component_of_WINDS"},"data":[0,0,0,0,0,0,0,0,0,0,0,0,0,0,0,0,0,0,0,0,0,0,0,0,0,0,0,0,0,0,0,0,0,0,0,0,0,0,0,0,0,0,0,0,0,0,0,0,0,0,0,0,0,0,0,0,0,0,-6.271,-6.2711,0,-6.2797,-6.2798,-6.2799,-6.274,-6.2738,-6.2735,-6.2732,-6.2816,-6.2821,-6.2826,0,0,0,0,0,0,0,0,0,0,0,0,0,-6.249,-6.2494,-6.271,-6.2711,-6.2712,-6.2797,-6.2798,-6.2799,-6.2741,-6.2737,-6.2734,-6.2731,-6.2815,-6.282,-6.2826,0,0,0,0,0,0,0,0,0,0,0,0,0,-6.2582,-6.2496,-6.271,-6.2693,-6.2693,-6.2797,-6.2798,-6.2799,-6.2741,-6.2737,-6.2733,-6.273,-6.2813,-6.282,-6.2827,-6.295,0,0,-6.2848,-6.2852,0,0,0,0,0,0,0,0,-6.2577,-6.259,-6.2695,-6.2695,-6.2694,-6.2754,-6.2751,-6.285,-6.2742,-6.2723,-6.2732,-6.2728,-6.2798,-6.2806,-6.2831,-6.2954,-6.2958,-6.2849,-6.2853,-6.2856,-6.2858,0,0,0,0,0,0,0,-6.2571,-6.2586,-6.2744,-6.2696,-6.2696,-6.2681,-6.2689,-6.277,-6.2782,-6.2724,-6.272,-6.2731,-6.2797,-6.2825,-6.2833,-6.2959,-6.2849,-6.2855,-6.286,-6.2862,-6.319,-6.3194,0,0,0,0,0,0,-6.2566,-6.2581,-6.2741,-6.2747,-6.2625,-6.2688,-6.2697,-6.2739,-6.2781,-6.2783,-6.2735,-6.2728,-6.2815,-6.2825,-6.2836,-6.2985,-6.2856,-6.2863,-6.2867,-6.3186,-6.3191,-6.3196,0,0,0,0,0,0,-6.2562,-6.2581,-6.2738,-6.2663,-6.2682,-6.2696,-6.2742,-6.2742,-6.277,-6.2789,-6.279,-6.2761,-6.2812,-6.2826,-6.2923,-6.2987,-6.2866,-6.2873,-6.318,-6.3187,-6.3193,-6.3284,0,0,0,0,0,0,-6.2556,-6.258,-6.2628,-6.2665,-6.2686,-6.2825,-6.2746,-6.2747,-6.2783,-6.2775,-6.2813,-6.2816,-6.281,-6.2913,-6.293,-6.2995,-6.2878,-6.3175,-6.3183,-6.3191,-6.3275,-6.3293,-6.3308,0,0,0,0,0,-6.2548,-6.2648,-6.263,-6.265,-6.2746,-6.2829,-6.2841,-6.2834,-6.2788,-6.2836,-6.2848,-6.2815,-6.2977,-6.2923,-6.2942,-6.301,-6.3171,-6.3181,-6.3191,-6.3268,-6.3289,-6.3307,0,0,0,0,0,0,-6.2615,-6.2652,-6.2633,-6.2748,-6.2786,-6.2819,-6.2879,-6.2856,-6.2906,-6.2897,-6.2884,-6.2893,-6.2996,-6.3012,-6.2952,-6.3133,-6.3067,-6.3081,-6.3119,-6.3139,-6.3155,-6.315,-6.2884,0,0,0,0,0,-6.2644,-6.2709,-6.2737,-6.2836,-6.2856,-6.2865,-6.29,-6.2892,-6.293,-6.2945,-6.2965,-6.3002,-6.3062,-6.3101,-6.3156,-6.3277,-6.3285,-6.3333,-6.3349,-6.3362,-6.3375,-6.3442,-6.3464,-6.3229,-6.3229,-6.3229,0,0,-6.2703,-6.2731,-6.2773,-6.285,-6.2879,-6.2947,-6.2879,-6.2952,-6.3002,-6.2955,-6.305,-6.3066,-6.3107,-6.3217,-6.3266,-6.3234,-6.3442,-6.3375,-6.3386,-6.3391,-6.3455,-6.3477,-6.3497,-6.3236,-6.3234,-6.3233,0,0,-6.2845,-6.2873,-6.2959,-6.299,-6.3035,-6.3041,-6.3062,-6.3099,-6.3109,-6.3203,-6.3171,-6.3229,-6.3331,-6.3363,-6.3392,-6.355,-6.3521,-6.3568,-6.3653,-6.3719,-6.3737,-6.3754,-6.3812,-6.3833,-6.358,-6.358,-6.358,0,-6.2912,-6.3015,-6.3006,-6.3084,-6.312,-6.3083,-6.3171,-6.32,-6.326,-6.3286,-6.3248,-6.3379,-6.3403,-6.3521,-6.356,-6.3584,-6.3608,-6.3564,-6.3736,-6.3752,-6.3767,-6.3822,-6.3844,-6.3586,-6.3585,-6.3585,-6.3584,0,-6.3096,-6.3168,-6.3232,-6.3294,-6.3337,-6.3419,-6.3423,-6.3467,-6.3455,-6.3464,-6.3562,-6.359,-6.3652,-6.3679,-6.3667,-6.3797,-6.3776,-6.3737,-6.3671,-6.3795,-6.3847,-6.3868,-6.3594,-6.3592,-6.359,-6.3589,0,0,-6.3282,-6.3342,-6.3365,-6.3395,-6.3443,-6.3497,-6.3578,-6.3641,-6.368,-6.3723,-6.3791,-6.3879,-6.3846,-6.3879,-6.3869,-6.3927,-6.4053,-6.3882,-6.3883,-6.3914,-6.42,-6.423,-6.4254,-6.4034,-6.4038,-6.4041,-6.4197,0,-6.3429,-6.3573,-6.3569,-6.3702,-6.3769,-6.3736,-6.3806,-6.3843,-6.3854,-6.3912,-6.3923,-6.3987,-6.3936,-6.3957,-6.4012,-6.4026,-6.411,-6.4014,-6.4097,-6.41,-6.409,-6.4281,-6.4312,-6.4459,-6.4217,-6.4221,-6.4223,0,-6.362,-6.3673,-6.3814,-6.3855,-6.3883,-6.3946,-6.4005,-6.406,-6.4102,-6.4106,-6.4145,-6.4127,-6.4209,-6.414,-6.4253,-6.4188,-6.4221,-6.4233,-6.4239,-6.4247,-6.417,-6.4297,-6.4505,-6.4528,-6.4254,-6.4252,-6.425,0,-6.3745,-6.3851,-6.3949,-6.3975,-6.4024,-6.4071,-6.4093,-6.4131,-6.417,-6.422,-6.4246,-6.4304,-6.4337,-6.4383,-6.4381,-6.4331,-6.4497,-6.4426,-6.4503,-6.4503,-6.454,-6.4538,-6.4758,-6.4559,-6.4558,-6.4558,-6.4557,0,-6.391,-6.3998,-6.4007,-6.4068,-6.4165,-6.416,-6.4256,-6.4274,-6.4308,-6.4371,-6.4345,-6.4405,-6.4399,-6.4459,-6.4458,-6.4553,-6.4567,-6.4573,-6.4572,-6.4576,-6.4576,-6.4599,-6.4589,-6.4564,-6.4562,-6.4561,-6.456,0,-6.4066,-6.4076,-6.4182,-6.4221,-6.4233,-6.4304,-6.4337,-6.4395,-6.4404,-6.4485,-6.4503,-6.4518,-6.4588,-6.4591,-6.467,-6.4669,-6.4786,-6.4772,-6.4773,-6.4771,-6.4848,-6.4841,-6.5092,-6.5125,-6.4903,-6.4905,-6.4906,0,-6.4172,-6.424,-6.4288,-6.433,-6.4356,-6.4423,-6.4464,-6.446,-6.4504,-6.4558,-6.4609,-6.4677,-6.4731,-6.4844,-6.4861,-6.4922,-6.4911,-6.4995,-6.492,-6.4923,-6.4915,-6.4912,-6.4919,-6.501,-6.5012,-6.5014,-6.5016,0,-6.436,-6.4362,-6.4423,-6.4487,-6.4537,-6.4586,-6.4631,-6.4666,-6.4669,-6.4719,-6.4791,-6.4834,-6.4917,-6.4985,-6.5045,-6.5066,-6.5042,-6.5039,-6.5061,-6.5067,-6.5065,-6.5069,-6.4815,-6.5034,-6.5032,-6.5031,-6.503,-6.5029,-6.4496,-6.4555,-6.46,-6.4669,-6.4703,-6.4747,-6.4805,-6.4823,-6.4884,-6.4953,-6.4947,-6.5028,-6.5068,-6.5147,-6.5174,-6.5237,-6.5208,-6.5238,-6.5246,-6.5254,-6.5264,-6.5054,-6.5247,-6.5247,-6.5246,-6.5246,-6.5245,0,-6.4684,-6.4712,-6.4776,-6.4842,-6.4897,-6.4871,-6.4921,-6.4968,-6.5041,-6.5082,-6.5137,-6.5221,-6.5288,-6.5311,-6.5375,-6.5421,-6.5412,-6.5438,-6.5436,-6.5442,-6.5284,-6.5261,-6.5445,-6.5445,-6.5445,-6.5445,-6.5445,-6.5445,-6.4789,-6.4889,-6.4897,-6.5015,-6.5041,-6.5122,-6.5153,-6.5193,-6.5227,-6.5323,-6.5379,-6.5395,-6.5429,-6.5496,-6.5556,-6.5561,-6.5587,-6.5619,-6.5619,-6.5472,-6.5452,-6.5433,-6.5411,-6.5624,-6.5624,-6.5771,-6.5773,-6.5774]}]]